• 1

Unser Programm für 2016

  • 31.7. Familientag in Rechberghausen

    Liebe Flugbegeisterte
    auf dem Familientag in Rechberghausen sind wir Partner der NWZ. Wer Lust hat, darf im Flugsimulator ein paar Runden drehen und wer Glück hat, kann tolle Preise gewinnen

  • 3. und 4. September 2016 Flugplatzfest

    3. und 4. September 2016 Flugplatzfest

    Auch 2016 lädt der AeroClub Göppingen-Salach am 03.09. wieder zum bekannten Flugplatzfest auf dem Flugplatz Gruibingen-Nortel ein.

    Es erwarten sie auch dieses Jahr wieder ein spannendes Flugprogram mit einem Querschnitt

    zum Bericht
  • Unsere Gaststätte ist geöffnet

    Unsere Gaststätte ist geöffnet

    Wir freuen uns auf Ihren Besuch

    zum Bericht
  • 1

WebCam

Kamera Halle
Kamera Vorplatz
Wetter EDDS

METAR

EDDS 300420Z 36004KT 320V030 9999 SCT042 15/13 Q1024 NOSIG =


TAF

EDDS 292300Z 3000/3024 36003KT 9999 FEW040 BECMG 3007/3010 04008KT BECMG 3018/3021 04003KT =


SR/SS

04:36 / 18:06 UTC
(EDSO 30-08-2016)

Austräger der GPS Triangle WM 2017